• In United Kingdom
  • List of Countries
  • For 7 days
  • Water Temperature
  • Satellite Maps
  • Weather Map
  • Weather Widgets
  • user-avatar
    Login

    Hourly Weather Dobiezyn

    Today, 21 October, Sunday

    Time Temperature Precipitation Wind Pressure Humidity
    00:00 +8°C° 0.1 mm 2 mps 762 mmHg 82%
    01:00 +8°C° 0.1 mm 2 mps 762 mmHg 85%
    02:00 +7°C° 0 mm 2 mps 762 mmHg 87%
    03:00 +7°C° 0 mm 2 mps 762 mmHg 90%
    04:00 +7°C° 0 mm 1 mps 762 mmHg 93%
    05:00 +7°C° 0 mm 1 mps 762 mmHg 94%
    06:00 +7°C° 0 mm 1 mps 763 mmHg 94%
    07:00 +6°C° 0 mm 0 mps 763 mmHg 94%
    08:00 +7°C° 0 mm 0 mps 763 mmHg 88%
    09:00 +9°C° 0 mm 0 mps 763 mmHg 81%
    10:00 +10°C° 0 mm 0 mps 764 mmHg 75%
    11:00 +11°C° 0 mm 0 mps 764 mmHg 70%
    12:00 +13°C° 0 mm 1 mps 763 mmHg 65%
    13:00 +14°C° 0 mm 1 mps 763 mmHg 60%
    14:00 +14°C° 0 mm 1 mps 763 mmHg 61%
    15:00 +13°C° 0 mm 1 mps 763 mmHg 63%
    16:00 +13°C° 0 mm 1 mps 763 mmHg 64%
    17:00 +12°C° 0 mm 1 mps 763 mmHg 68%
    18:00 +11°C° 0 mm 1 mps 763 mmHg 72%
    19:00 +10°C° 0 mm 1 mps 763 mmHg 76%
    20:00 +9°C° 0 mm 1 mps 763 mmHg 78%
    21:00 +9°C° 0 mm 1 mps 763 mmHg 80%
    22:00 +8°C° 0 mm 2 mps 763 mmHg 81%
    23:00 +7°C° 0 mm 2 mps 763 mmHg 83%

    Tomorrow, 22 October, Monday

    Time Temperature Precipitation Wind Pressure Humidity
    00:00 +7°C° 0 mm 2 mps 763 mmHg 84%
    01:00 +7°C° 0 mm 2 mps 762 mmHg 86%
    02:00 +6°C° 0 mm 2 mps 762 mmHg 87%
    03:00 +6°C° 0 mm 2 mps 762 mmHg 88%
    04:00 +6°C° 0 mm 2 mps 761 mmHg 89%
    05:00 +6°C° 0 mm 2 mps 761 mmHg 90%
    06:00 +6°C° 0 mm 2 mps 761 mmHg 90%
    07:00 +6°C° 0 mm 2 mps 761 mmHg 91%
    08:00 +7°C° 0 mm 3 mps 761 mmHg 84%
    09:00 +9°C° 0 mm 3 mps 761 mmHg 76%
    10:00 +11°C° 0 mm 3 mps 761 mmHg 69%
    11:00 +11°C° 0 mm 3 mps 761 mmHg 69%
    12:00 +11°C° 0 mm 4 mps 760 mmHg 69%
    13:00 +12°C° 0 mm 4 mps 760 mmHg 69%
    14:00 +11°C° 0.2 mm 4 mps 760 mmHg 74%
    15:00 +11°C° 0.2 mm 4 mps 760 mmHg 78%
    16:00 +10°C° 0.2 mm 4 mps 760 mmHg 83%
    17:00 +8°C° 0.1 mm 4 mps 761 mmHg 82%
    18:00 +8°C° 0.1 mm 4 mps 761 mmHg 82%
    19:00 +8°C° 0.1 mm 3 mps 761 mmHg 81%
    20:00 +7°C° 0 mm 3 mps 762 mmHg 82%
    21:00 +7°C° 0 mm 3 mps 762 mmHg 82%
    22:00 +5°C° 0 mm 3 mps 762 mmHg 83%
    23:00 +5°C° 0 mm 3 mps 762 mmHg 83%

    Day after tomorrow, 23 October, Tuesday

    Time Temperature Precipitation Wind Pressure Humidity
    00:00 +4°C° 0 mm 3 mps 762 mmHg 84%
    01:00 +4°C° 0 mm 3 mps 762 mmHg 85%
    02:00 +4°C° 0 mm 4 mps 761 mmHg 85%
    03:00 +4°C° 0 mm 4 mps 760 mmHg 85%
    04:00 +4°C° 0 mm 4 mps 760 mmHg 85%
    05:00 +3°C° 0.1 mm 5 mps 759 mmHg 83%
    06:00 +3°C° 0.1 mm 5 mps 758 mmHg 81%
    07:00 +4°C° 0.1 mm 6 mps 758 mmHg 79%
    08:00 +4°C° 0.4 mm 7 mps 757 mmHg 79%
    09:00 +4°C° 0.4 mm 8 mps 756 mmHg 78%
    10:00 +5°C° 0.4 mm 9 mps 755 mmHg 78%
    11:00 +5°C° 0.5 mm 9 mps 753 mmHg 79%
    12:00 +6°C° 0.5 mm 10 mps 752 mmHg 79%
    13:00 +6°C° 0.5 mm 10 mps 751 mmHg 79%
    14:00 +7°C° 0.6 mm 10 mps 750 mmHg 80%
    15:00 +7°C° 0.6 mm 11 mps 749 mmHg 80%
    16:00 +8°C° 0.6 mm 11 mps 747 mmHg 81%
    17:00 +8°C° 0.9 mm 11 mps 747 mmHg 81%
    18:00 +9°C° 0.9 mm 11 mps 746 mmHg 82%
    19:00 +9°C° 0.9 mm 11 mps 745 mmHg 83%
    20:00 +9°C° 1.2 mm 11 mps 744 mmHg 82%
    21:00 +11°C° 1.2 mm 11 mps 744 mmHg 81%
    22:00 +11°C° 1.2 mm 11 mps 743 mmHg 80%
    23:00 +11°C° 0.6 mm 11 mps 743 mmHg 77%

    24 October, Wednesday

    Time Temperature Precipitation Wind Pressure Humidity
    00:00 +9°C° 0.6 mm 10 mps 743 mmHg 74%
    01:00 +9°C° 0.6 mm 10 mps 743 mmHg 72%
    02:00 +7°C° 0.1 mm 10 mps 744 mmHg 70%
    03:00 +6°C° 0.1 mm 9 mps 745 mmHg 68%
    04:00 +5°C° 0.1 mm 9 mps 745 mmHg 66%
    05:00 +5°C° 0 mm 8 mps 746 mmHg 65%
    06:00 +4°C° 0 mm 8 mps 747 mmHg 64%
    07:00 +4°C° 0 mm 7 mps 748 mmHg 63%
    08:00 +5°C° 0 mm 8 mps 749 mmHg 58%
    09:00 +6°C° 0 mm 9 mps 749 mmHg 53%
    10:00 +7°C° 0 mm 10 mps 750 mmHg 48%
    11:00 +7°C° 0 mm 10 mps 750 mmHg 45%
    12:00 +7°C° 0 mm 10 mps 750 mmHg 43%
    13:00 +8°C° 0 mm 10 mps 751 mmHg 40%
    14:00 +7°C° 0 mm 9 mps 751 mmHg 43%
    15:00 +7°C° 0 mm 8 mps 752 mmHg 45%
    16:00 +6°C° 0 mm 7 mps 752 mmHg 48%
    17:00 +7°C° 0 mm 6 mps 752 mmHg 51%
    18:00 +5°C° 0 mm 6 mps 753 mmHg 54%
    19:00 +5°C° 0 mm 5 mps 753 mmHg 58%
    20:00 +5°C° 0 mm 5 mps 753 mmHg 60%
    21:00 +5°C° 0 mm 5 mps 754 mmHg 63%
    22:00 +3°C° 0 mm 5 mps 754 mmHg 65%
    23:00 +3°C° 0 mm 5 mps 753 mmHg 69%

    25 October, Thursday

    Time Temperature Precipitation Wind Pressure Humidity
    00:00 +3°C° 0 mm 5 mps 753 mmHg 73%
    01:00 +3°C° 0 mm 5 mps 753 mmHg 77%
    02:00 +5°C° 0.1 mm 5 mps 752 mmHg 80%
    03:00 +6°C° 0.1 mm 5 mps 752 mmHg 83%
    04:00 +6°C° 0.1 mm 5 mps 751 mmHg 86%
    05:00 +8°C° 0.3 mm 6 mps 751 mmHg 87%
    06:00 +9°C° 0.3 mm 7 mps 750 mmHg 87%
    07:00 +10°C° 0.3 mm 8 mps 750 mmHg 87%
    08:00 +10°C° 0.1 mm 8 mps 749 mmHg 83%
    09:00 +10°C° 0.1 mm 8 mps 749 mmHg 80%
    10:00 +10°C° 0.1 mm 9 mps 749 mmHg 77%
    11:00 +10°C° 0.1 mm 9 mps 749 mmHg 77%
    12:00 +10°C° 0.1 mm 8 mps 749 mmHg 77%
    13:00 +10°C° 0.1 mm 8 mps 749 mmHg 78%
    14:00 +10°C° 0.1 mm 8 mps 749 mmHg 78%
    15:00 +10°C° 0.1 mm 8 mps 749 mmHg 78%
    16:00 +10°C° 0.1 mm 8 mps 749 mmHg 79%
    17:00 +10°C° 0.2 mm 7 mps 749 mmHg 79%
    18:00 +10°C° 0.2 mm 6 mps 749 mmHg 80%
    19:00 +10°C° 0.2 mm 6 mps 750 mmHg 80%
    20:00 +10°C° 0.2 mm 6 mps 750 mmHg 82%
    21:00 +10°C° 0.2 mm 6 mps 750 mmHg 83%
    22:00 +10°C° 0.2 mm 6 mps 750 mmHg 85%
    23:00 +10°C° 0.2 mm 6 mps 750 mmHg 85%

    26 October, Friday

    Time Temperature Precipitation Wind Pressure Humidity
    00:00 +10°C° 0.2 mm 6 mps 750 mmHg 85%
    01:00 +9°C° 0.2 mm 6 mps 750 mmHg 85%
    02:00 +9°C° 0.1 mm 6 mps 750 mmHg 86%
    03:00 +9°C° 0.1 mm 5 mps 749 mmHg 86%
    04:00 +9°C° 0.1 mm 5 mps 749 mmHg 86%
    05:00 +8°C° 0.1 mm 5 mps 749 mmHg 87%
    06:00 +8°C° 0.1 mm 5 mps 749 mmHg 88%
    07:00 +8°C° 0.1 mm 4 mps 749 mmHg 89%
    08:00 +8°C° 0 mm 4 mps 749 mmHg 86%
    09:00 +9°C° 0 mm 5 mps 749 mmHg 82%
    10:00 +9°C° 0 mm 5 mps 749 mmHg 79%
    11:00 +10°C° 0 mm 5 mps 748 mmHg 75%
    12:00 +10°C° 0 mm 5 mps 748 mmHg 71%
    13:00 +12°C° 0 mm 5 mps 747 mmHg 67%
    14:00 +12°C° 0 mm 5 mps 747 mmHg 68%
    15:00 +11°C° 0 mm 4 mps 746 mmHg 70%
    16:00 +11°C° 0 mm 4 mps 746 mmHg 71%
    17:00 +10°C° 0 mm 4 mps 746 mmHg 74%
    18:00 +10°C° 0 mm 3 mps 745 mmHg 76%
    19:00 +9°C° 0 mm 2 mps 745 mmHg 79%
    20:00 +9°C° 0 mm 3 mps 745 mmHg 81%
    21:00 +9°C° 0 mm 3 mps 744 mmHg 83%
    22:00 +9°C° 0 mm 3 mps 744 mmHg 85%
    23:00 +8°C° 0 mm 3 mps 744 mmHg 86%
    Show more